Regional Weather Roundup
Issued by NWS

Home | Current Version | Previous Version | Text Only | Print | Product List | Glossary On
Versions: 1 2 3 4 5 6 7 8 9 10 11 12 13 14 15 16 17 18 19 20 21 22 23 24 25 26 27 28 29 30 31 32 33 34 35 36 37 38 39 40 41 42 43 44 45 46 47 48 49 50
000
ASUS44 KMEG 140110
RWRTN
TENNESSEE HOURLY STATE WEATHER ROUNDUP
NATIONAL WEATHER SERVICE MEMPHIS TN
700 PM CST WED DEC 13 2017

TNZ002-004-019-021-049-052-054-088>092-140200-
WEST TENNESSEE

CITY           SKY/WX    TMP DP  RH WIND       PRES   REMARKS
MEMPHIS INTL   CLEAR     51  28  41 SW8       29.80S
NWS MEMPHIS      N/A     52 N/A N/A MISG        N/A
JACKSON        CLEAR     48  26  42 SW9       29.79R
DYERSBURG      CLEAR     50  27  40 SW9       29.78R
SOMERVILLE     PTCLDY    50  27  40 S10G16    29.79R
COVINGTON      CLEAR     48  27  43 SW7       29.79R
UNION CITY     CLEAR     48  27  43 SW12      29.74S
BOLIVAR        PTCLDY    50  25  37 S6        29.79S
PARIS          CLEAR     45  27  49 SW12      29.73S
HUNTINGDON     PTCLDY    48  27  43 SW7       29.75S
LEXINGTON      CLEAR     45  25  45 SW8       29.78R
SELMER         PTCLDY    50  23  34 SW7       29.80R
SAVANNAH       CLOUDY    48  23  37 SW10G17   29.80R
$$

TNZ008-025-027-028-033-062-065-066-140200-
NORTH MIDDLE TENNESSEE

CITY           SKY/WX    TMP DP  RH WIND       PRES   REMARKS
NASHVILLE      CLEAR     47  20  34 SW9       29.76S
PORTLAND       CLEAR     45  19  36 MISG      29.72R
CLARKSVILLE    CLEAR     50  22  33 SW14G21   29.72R
SMYRNA         CLEAR     43  20  39 S5        29.78R
COOKEVILLE     CLEAR     41  18  38 SW9       29.75S
GALLATIN       PTCLDY    46  19  34 SW7       29.77R
CROSSVILLE     CLEAR     37  13  37 VRB7      29.74R WCI  32
$$

TNZ061-075-076-078-094-096-097-140200-
SOUTH MIDDLE TENNESSEE

CITY           SKY/WX    TMP DP  RH WIND       PRES   REMARKS
FAYETTEVILLE   CLOUDY    45  21  39 S9        29.80F
TULLAHOMA      CLOUDY    43  19  39 SW10      29.79S
WINCHESTER     CLEAR     45  19  36 SW7       29.81F
MCMINNVILLE    MOCLDY    41  18  38 SW7       29.78R
COLUMBIA       CLEAR     45  21  39 SW10      29.77R
SHELBYVILLE    PTCLDY    43  21  42 SW9       29.80R
$$

TNZ017-018-042-046-047-140200-
NORTHEAST TENNESSEE

CITY           SKY/WX    TMP DP  RH WIND       PRES   REMARKS
TRI CITIES     CLEAR     30  16  56 SW6       29.70R WCI  24
ELIZABETHTON   CLOUDY    28  19  69 CALM      29.71R
$$

TNZ012-013-036-069-073-074-140200-
CENTRAL EAST TENNESSEE

CITY           SKY/WX    TMP DP  RH WIND       PRES   REMARKS
KNOXVILLE      PTCLDY    41  17  38 SW14      29.76R
OAK RIDGE      CLEAR     41  15  35 W5        29.78R
DOWNTOWN KNOXV CLOUDY    45  16  31 W13G25    29.76R
GATLINBURG     CLOUDY    43   9  24 NW6       29.74R
MORRISTOWN     CLOUDY    43  10  26 W15G21    29.73R
JACKSBORO      PTCLDY    41  14  33 VRB7      29.76R
$$

TNZ083-085-099-140200-
SOUTHEAST TENNESSEE

CITY           SKY/WX    TMP DP  RH WIND       PRES   REMARKS
CHATTANOOGA    PTCLDY    42  17  36 S6        29.83R
DAYTON         PTCLDY    43  21  42 SW10      29.80R
$$

SKY/WX REPORTED AS FAIR MEANS FEW OR NO CLOUDS BELOW
12 THOUSAND FEET.





USA.gov is the U.S. government's official web portal to all federal, state and local government web resources and services.